Weather observations for the past three days for
Brownwood, Brownwood Regional Airport
Imperial (Metric)
Date Time (cdt) Wind (mph) Vis. (mi.) Weather Sky Cond. Temperature (ºF) Relative Humidity Wind Chill (°F) Heat Index (°F) Pressure Precipitation (in)
Air Dwpt 6 hour altimeter (in) sea level (mb) 1 hr 3 hr 6 hr
Max. Min.
19 06:55 NE 3 0.00 NULL NULL 69.8 68 94% 30.11 0.0
19 06:35 Calm 0.00 NULL NULL 68 66.2 94% 30.1 0.0
19 06:15 Calm 0.00 NULL NULL 69.8 68 94% 30.09 0.0
19 05:55 Calm 0.00 NULL NULL 69.8 68 94% 30.1 0.0
19 05:35 N 3 0.00 NULL NULL 71.6 68 88% 30.1 0.0
19 05:15 Calm 0.00 Mostly Cloudy BKN050 71.6 68 88% 30.09 0.0
19 04:55 Calm 0.00 Mostly Cloudy BKN050 71.6 68 88% 30.09 0.0
19 04:35 Calm 0.00 Mostly Cloudy BKN050 71.6 68 88% 30.09 0.0
19 04:15 NE 3 0.00 Overcast OVC050 73.4 68 83% 30.09 0.0
19 03:55 NE 3 0.00 Overcast OVC050 73.4 68 83% 30.09 0.0
19 03:35 NE 3 0.00 Overcast OVC050 75.2 68 78% 76 30.09 0.0
19 03:15 Calm 0.00 Overcast OVC060 75.2 68 78% 76 30.1 0.0
19 02:55 Calm 0.00 Overcast FEW048 BKN060 OVC075 75.2 68 78% 76 30.1 0.0
19 02:35 E 3 0.00 Overcast BKN050 OVC055 77 68 74% 79 30.1 0.0
19 02:15 E 5 0.00 Overcast BKN055 OVC070 77 68 74% 79 30.1 0.0
19 01:55 E 5 0.00 Overcast OVC055 77 66.2 69% 79 30.1 0.0
19 01:35 E 3 0.00 Overcast SCT050 OVC065 77 66.2 69% 79 30.1 0.0
19 01:15 NE 3 0.00 Overcast OVC065 77 66.2 69% 79 30.1 0.0
19 00:55 NE 3 0.00 Partly Cloudy SCT065 77 66.2 69% 79 30.09 0.0
19 00:35 NE 5 0.00 Fair CLR 77 64.4 65% 79 30.09 0.0
19 00:15 NE 5 0.00 A Few Clouds FEW050 77 64.4 65% 79 30.09 0.0
18 23:55 NE 5 0.00 Fair CLR 77 64.4 65% 79 30.09 0.0
18 23:35 NE 6 0.00 Fair CLR 77 62.6 61% 79 30.09 0.0
18 23:15 NE 6 0.00 Fair CLR 77 62.6 61% 79 30.09 0.0
18 22:55 NE 6 0.00 Fair CLR 77 59 54% 79 30.08 0.0
18 22:35 NE 5 0.00 A Few Clouds FEW080 77 59 54% 79 30.07 0.0
18 22:15 Calm 0.00 Fair CLR 75.2 60.8 61% 77 30.07 0.0
18 21:55 NE 3 0.00 Fair CLR 77 59 54% 79 30.06 0.0
18 21:35 N 6 0.00 Fair CLR 78.8 59 51% 80 30.06 0.0
18 21:15 Calm 0.00 Fair CLR 80.6 59 48% 81 30.06 0.0
18 20:55 Calm 0.00 Fair CLR 84.2 57.2 40% 83 30.05 0.0
18 20:35 NE 3 0.00 Fair CLR 84.2 57.2 40% 83 30.05 0.0
18 20:15 NE 3 0.00 Fair CLR 87.8 57.2 35% 87 30.04 0.0
18 19:55 NE 6 0.00 Fair CLR 89.6 55.4 31% 88 30.03 0.0
18 19:35 NE 6 0.00 Fair CLR 89.6 53.6 29% 87 30.02 0.0
18 19:15 N 7 0.00 Fair CLR 91.4 53.6 28% 89 30.02 0.0
18 18:55 N 10 G 16 0.00 Fair CLR 91.4 53.6 28% 89 30.02 0.0
18 18:35 N 10 G 20 0.00 Fair CLR 91.4 55.4 30% 90 30.02 0.0
18 18:15 N 6 0.00 Fair CLR 91.4 55.4 30% 90 30.01 0.0
18 17:55 N 10 0.00 Fair CLR 91.4 57.2 32% 90 30.02 0.0
18 17:35 N 5 0.00 Partly Cloudy SCT080 91.4 55.4 30% 90 30.02 0.0
18 17:15 N 13 G 18 0.00 Partly Cloudy SCT080 93.2 57.2 30% 92 30.03 0.0
18 16:55 N 7 0.00 Fair CLR 91.4 57.2 32% 90 30.04 0.0
18 16:35 NW 9 0.00 Fair CLR 93.2 59 32% 93 30.05 0.0
18 16:15 N 6 0.00 Fair CLR 93.2 57.2 30% 92 30.06 0.0
18 15:55 NW 10 G 16 0.00 A Few Clouds FEW070 93.2 59 32% 93 30.06 0.0
18 15:35 NW 8 0.00 A Few Clouds FEW080 91.4 57.2 32% 90 30.07 0.0
18 15:15 N 7 0.00 A Few Clouds FEW070 91.4 59 34% 91 30.08 0.0
18 14:55 Calm 0.00 Partly Cloudy SCT060 SCT070 91.4 59 34% 91 30.09 0.0
18 14:35 NW 8 0.00 Mostly Cloudy SCT060 BKN070 89.6 62.6 41% 90 30.09 0.0
18 14:15 N 5 0.00 Fair CLR 91.4 60.8 36% 91 30.09 0.0
18 13:55 NE 9 0.00 A Few Clouds FEW050 91.4 60.8 36% 91 30.1 0.0
18 13:35 N 5 0.00 Partly Cloudy SCT050 89.6 64.4 43% 91 30.12 0.0
18 13:15 N 9 0.00 Partly Cloudy SCT048 89.6 64.4 43% 91 30.12 0.0
18 12:55 NE 10 0.00 Partly Cloudy SCT046 89.6 66.2 46% 92 30.13 0.0
18 12:35 NE 3 0.00 A Few Clouds FEW043 87.8 66.2 49% 90 30.14 0.0
18 12:15 NE 6 0.00 A Few Clouds FEW039 86 66.2 52% 88 30.15 0.0
18 11:55 NE 7 0.00 Partly Cloudy SCT039 86 66.2 52% 88 30.16 0.0
18 11:35 NE 7 0.00 Partly Cloudy SCT035 86 66.2 52% 88 30.17 0.0
18 11:15 NE 9 0.00 Partly Cloudy SCT031 84.2 66.2 55% 87 30.16 0.0
18 10:55 NE 10 G 16 0.00 Partly Cloudy SCT029 84.2 66.2 55% 87 30.16 0.0
18 10:35 NE 9 0.00 Fair CLR 82.4 68 62% 85 30.17 0.0
18 10:15 NE 9 0.00 A Few Clouds FEW024 82.4 68 62% 85 30.16 0.0
18 09:55 NE 7 0.00 Partly Cloudy SCT024 82.4 68 62% 85 30.16 0.0
18 09:35 N 9 0.00 Partly Cloudy SCT024 80.6 68 66% 83 30.15 0.0
18 09:15 NE 7 0.00 Fair CLR 80.6 71.6 74% 85 30.15 0.0
18 08:55 NE 10 0.00 Fair CLR 78.8 69.8 74% 81 30.15 0.0
18 08:35 N 9 0.00 A Few Clouds FEW027 77 69.8 79% 79 30.14 0.0
18 08:15 NW 3 0.00 Partly Cloudy SCT027 75.2 69.8 83% 75 30.13 0.0
18 07:55 NW 5 0.00 NULL NULL 73.4 69.8 89% 30.12 0.0
18 07:35 W 3 0.00 NULL NULL 73.4 69.8 89% 30.12 0.0
18 07:15 NW 6 0.00 NULL NULL 71.6 69.8 94% 30.1 0.0
18 06:55 N 5 0.00 NULL NULL 71.6 69.8 94% 30.1 0.0
18 06:35 W 3 0.00 Overcast OVC065 71.6 69.8 94% 30.1 0.0
18 06:15 W 3 0.00 Overcast OVC065 71.6 68 88% 30.1 0.0
18 05:55 N 3 0.00 Overcast BKN065 OVC080 71.6 68 88% 30.09 0.0
18 05:35 N 5 0.00 Overcast OVC065 71.6 69.8 94% 30.09 0.0
18 05:15 NW 5 0.00 Overcast OVC065 71.6 71.6 100% 30.08 0.0
18 04:55 NE 3 0.00 Overcast OVC065 71.6 71.6 100% 30.08 0.0
18 04:35 Calm 0.00 Overcast OVC065 71.6 69.8 94% 30.07 0.0
18 04:15 S 5 0.00 Overcast OVC075 71.6 69.8 94% 30.07 0.0
18 03:55 Calm 0.00 Overcast OVC075 71.6 69.8 94% 30.07 0.0
18 03:35 N 5 0.00 Overcast OVC075 73.4 71.6 94% 30.07 0.0
18 03:15 Calm 0.00 Overcast OVC075 73.4 71.6 94% 30.07 0.0
18 02:55 NW 3 0.00 Overcast OVC075 73.4 71.6 94% 30.08 0.0
18 02:35 Calm 0.00 Overcast OVC075 71.6 71.6 100% 30.08 0.0
18 02:15 Calm 0.00 Overcast OVC075 71.6 71.6 100% 30.09 0.0
18 01:55 NW 3 0.00 Overcast BKN075 OVC090 71.6 71.6 100% 30.08 0.0
18 01:35 N 3 0.00 NULL NULL 71.6 71.6 100% 30.09 0.0
18 01:15 Calm 0.00 Mostly Cloudy BKN065 71.6 71.6 100% 30.08 0.0
18 00:55 Calm 0.00 NULL NULL 71.6 71.6 100% 30.08 0.0
18 00:35 Calm 0.00 NULL NULL 71.6 71.6 100% 30.07 0.0
18 00:15 Calm 0.00 NULL NULL 73.4 73.4 100% 30.07 0.0
17 23:55 N 5 0.00 NULL NULL 73.4 73.4 100% 30.07 0.0
17 23:35 NE 3 0.00 NULL NULL 73.4 73.4 100% 30.07 0.0
17 23:15 Calm 0.00 NULL NULL 73.4 71.6 94% 30.06 0.0
17 22:55 Calm 0.00 NULL NULL 73.4 73.4 100% 30.05 0.0
17 22:35 W 5 0.00 NULL NULL 73.4 71.6 94% 30.05 0.0
17 22:15 NW 3 0.00 NULL NULL 75.2 73.4 94% 74 30.05 0.0
17 21:55 Calm 0.00 NULL NULL 75.2 71.6 89% 75 30.05 0.0
17 21:35 Calm 0.00 NULL NULL 75.2 71.6 89% 75 30.04 0.0
17 21:15 Calm 0.00 NULL NULL 75.2 71.6 89% 75 30.04 0.0
17 20:55 E 5 0.00 NULL NULL 75.2 73.4 94% 74 30.04 0.0
17 20:35 Calm 0.00 NULL NULL 77 73.4 89% 78 30.05 0.0
17 20:15 NE 3 0.00 NULL NULL 77 73.4 89% 78 30.04 0.0
17 19:55 N 3 0.00 NULL NULL 77 73.4 89% 78 30.04 0.0
17 19:35 NE 5 0.00 NULL NULL 77 73.4 89% 78 30.04 0.0
17 19:15 NE 5 0.00 NULL NULL 77 73.4 89% 78 30.04 0.0
17 18:55 NE 6 0.00 NULL NULL 77 73.4 89% 78 30.04 0.0
17 18:35 NE 7 0.00 Partly Cloudy FEW040 SCT055 78.8 73.4 84% 82 30.05 0.0
17 18:15 NE 7 0.00 Fair CLR 80.6 73.4 79% 85 30.04 0.0
17 17:55 NE 8 0.00 Fair CLR 82.4 73.4 74% 88 30.03 0.0
17 17:35 NE 7 0.00 A Few Clouds FEW100 84.2 73.4 70% 91 30.01 0.0
17 17:15 E 7 0.00 Partly Cloudy FEW070 SCT100 86 71.6 62% 92 30.01 0.0
17 16:55 NE 5 0.00 Fair CLR 89.6 68 49% 93 30.01 0.0
17 16:35 NE 3 0.00 Fair CLR 89.6 68 49% 93 30.01 0.0
17 16:15 Calm 0.00 Fair CLR 89.6 68 49% 93 30 0.0
17 15:55 NE 5 0.00 Fair CLR 91.4 68 46% 96 30.01 0.0
17 15:35 NE 5 0.00 Fair CLR 89.6 68 49% 93 30.01 0.0
17 15:15 NE 6 0.00 Fair CLR 89.6 69.8 52% 95 30.02 0.0
17 14:55 NE 8 0.00 Fair CLR 91.4 71.6 52% 99 30.03 0.0
17 14:35 N 5 0.00 Fair CLR 89.6 69.8 52% 95 30.04 0.0
17 14:15 Calm 0.00 Fair CLR 89.6 69.8 52% 95 30.04 0.0
17 13:55 NE 3 0.00 Fair CLR 89.6 68 49% 93 30.04 0.0
17 13:35 Calm 0.00 Fair CLR 89.6 69.8 52% 95 30.05 0.0
17 13:15 SW 6 0.00 Fair CLR 89.6 71.6 55% 96 30.05 0.0
17 12:55 S 9 0.00 Fair CLR 89.6 71.6 55% 96 30.04 0.0
17 12:35 S 9 0.00 Fair CLR 87.8 71.6 59% 94 30.05 0.0
17 12:15 S 3 0.00 Fair CLR 86 71.6 62% 92 30.05 0.0
17 11:55 S 8 0.00 Fair CLR 86 71.6 62% 92 30.05 0.0
17 11:35 S 8 0.00 Fair CLR 86 71.6 62% 92 30.05 0.0
17 11:15 SW 9 0.00 Fair CLR 84.2 71.6 66% 90 30.05 0.0
17 10:55 S 9 0.00 Fair CLR 84.2 71.6 66% 90 30.05 0.0
17 10:35 S 10 0.00 Fair CLR 84.2 71.6 66% 90 30.05 0.0
17 10:15 S 12 0.00 Fair CLR 82.4 71.6 70% 87 30.06 0.0
17 09:55 SW 9 0.00 Fair CLR 82.4 71.6 70% 87 30.06 0.0
17 09:35 S 9 0.00 Fair CLR 82.4 71.6 70% 87 30.06 0.0
17 09:15 S 8 0.00 Fair CLR 80.6 71.6 74% 85 30.06 0.0
17 08:55 S 9 0.00 Fair CLR 80.6 71.6 74% 85 30.05 0.0
17 08:35 S 3 0.00 Fair CLR 80.6 71.6 74% 85 30.05 0.0
17 08:15 Calm 0.00 Fair CLR 78.8 69.8 74% 81 30.06 0.0
17 07:55 Calm 0.00 Fair CLR 77 69.8 79% 79 30.06 0.0
17 07:35 Calm 0.00 Fair CLR 77 69.8 79% 79 30.06 0.0
17 07:15 N 3 0.00 Fair CLR 77 68 74% 79 30.05 0.0
17 06:55 S 5 0.00 Fair CLR 75.2 68 78% 76 30.01 0.0
17 06:35 S 6 0.00 Fair CLR 77 68 74% 79 30.01 0.0
17 06:15 S 7 0.00 Fair CLR 77 68 74% 79 30 0.0
17 05:55 S 6 0.00 A Few Clouds FEW040 75.2 68 78% 76 30.01 0.0
17 05:35 S 7 0.00 A Few Clouds FEW040 77 68 74% 79 30.01 0.0
17 05:15 SE 8 0.00 Fair CLR 77 66.2 69% 79 30.01 0.0
17 04:55 S 7 0.00 Fair CLR 77 66.2 69% 79 30 0.0
17 04:35 S 7 0.00 Fair CLR 77 66.2 69% 79 30 0.0
17 04:15 S 7 0.00 Fair CLR 78.8 66.2 65% 81 29.99 0.0
17 03:55 SE 7 0.00 Fair CLR 77 66.2 69% 79 30 0.0
17 03:35 SE 5 0.00 Fair CLR 78.8 66.2 65% 81 29.99 0.0
17 03:15 S 5 0.00 Fair CLR 78.8 66.2 65% 81 29.99 0.0
17 02:55 S 6 0.00 Fair CLR 80.6 66.2 62% 83 30 0.0
17 02:35 S 5 0.00 A Few Clouds FEW048 80.6 66.2 62% 83 29.99 0.0
17 02:15 S 7 0.00 Fair CLR 80.6 66.2 62% 83 29.98 0.0
17 01:55 S 8 0.00 Fair CLR 82.4 66.2 58% 85 29.96 0.0
17 01:35 S 7 0.00 Fair CLR 82.4 66.2 58% 85 29.96 0.0
17 01:15 S 8 0.00 Fair CLR 82.4 66.2 58% 85 29.96 0.0
17 00:55 S 8 0.00 Fair CLR 84.2 66.2 55% 87 29.95 0.0
17 00:35 S 9 0.00 Fair CLR 84.2 66.2 55% 87 29.95 0.0
17 00:15 S 10 0.00 Fair CLR 84.2 66.2 55% 87 29.94 0.0
16 23:55 S 12 0.00 Fair CLR 84.2 66.2 55% 87 29.94 0.0
16 23:35 S 9 0.00 Fair CLR 86 64.4 49% 87 29.94 0.0
16 23:15 S 9 0.00 Fair CLR 86 64.4 49% 87 29.94 0.0
16 22:55 S 13 G 18 0.00 Fair CLR 87.8 64.4 46% 89 29.93 0.0
16 22:35 S 13 G 22 0.00 Fair CLR 89.6 64.4 43% 91 29.92 0.0
16 22:15 S 13 G 20 0.00 Fair CLR 89.6 64.4 43% 91 29.91 0.0
16 21:55 SE 12 G 17 0.00 Fair CLR 89.6 62.6 41% 90 29.9 0.0
16 21:35 SE 13 G 18 0.00 Fair CLR 89.6 62.6 41% 90 29.9 0.0
16 21:15 SE 13 0.00 Fair CLR 91.4 62.6 38% 92 29.9 0.0
16 20:55 SE 10 0.00 Fair CLR 91.4 59 34% 91 29.89 0.0
16 20:35 SE 9 0.00 Fair CLR 91.4 59 34% 91 29.89 0.0
16 20:15 SE 10 0.00 Fair CLR 93.2 59 32% 93 29.89 0.0
16 19:55 SE 9 0.00 Fair CLR 93.2 59 32% 93 29.89 0.0
16 19:35 SE 8 0.00 Fair CLR 95 59 30% 94 29.89 0.0
16 19:15 SE 8 0.00 Fair CLR 98.6 57.2 25% 98 29.89 0.0
16 18:55 SE 9 0.00 Fair CLR 98.6 57.2 25% 98 29.88 0.0
16 18:35 S 10 0.00 Fair CLR 100.4 55.4 22% 99 29.89 0.0
16 18:15 SE 7 0.00 Fair CLR 100.4 55.4 22% 99 29.89 0.0
16 17:55 SE 9 0.00 Fair CLR 100.4 55.4 22% 99 29.89 0.0
16 17:35 SE 7 0.00 Fair CLR 100.4 55.4 22% 99 29.9 0.0
16 17:15 S 6 0.00 Fair CLR 100.4 55.4 22% 99 29.91 0.0
16 16:55 S 7 0.00 Fair CLR 100.4 55.4 22% 99 29.91 0.0
16 16:35 S 9 0.00 Fair CLR 100.4 55.4 22% 99 29.92 0.0
16 16:15 Calm 0.00 Fair CLR 100.4 55.4 22% 99 29.92 0.0
16 15:55 S 6 0.00 Fair CLR 100.4 55.4 22% 99 29.93 0.0
16 15:35 S 7 G 16 0.00 Fair CLR 100.4 55.4 22% 99 29.94 0.0
16 15:15 S 3 0.00 Fair CLR 98.6 57.2 25% 98 29.94 0.0
16 14:55 SW 12 0.00 Fair CLR 100.4 57.2 24% 100 29.95 0.0
16 14:35 S 12 0.00 Fair CLR 98.6 59 27% 98 29.96 0.0
16 14:15 SW 10 0.00 Fair CLR 98.6 59 27% 98 29.97 0.0
16 13:55 S 8 0.00 Fair CLR 98.6 60.8 29% 99 29.97 0.0
16 13:35 SW 6 0.00 Fair CLR 96.8 62.6 32% 98 29.98 0.0
16 13:15 S 6 0.00 Fair CLR 95 62.6 34% 96 29.99 0.0
16 12:55 S 7 0.00 Fair CLR 95 62.6 34% 96 30 0.0
16 12:35 W 7 0.00 Fair CLR 93.2 62.6 36% 94 30 0.0
16 12:15 SW 9 G 17 0.00 Fair CLR 93.2 62.6 36% 94 30.01 0.0
16 11:55 SW 10 G 16 0.00 Fair CLR 93.2 64.4 39% 95 30.01 0.0
16 11:35 S 10 G 16 0.00 Fair CLR 91.4 64.4 41% 93 30.01 0.0
16 11:15 S 12 0.00 Fair CLR 91.4 66.2 44% 94 30.01 0.0
16 10:55 S 10 0.00 Fair CLR 89.6 66.2 46% 92 30.01 0.0
16 10:35 S 8 0.00 Fair CLR 87.8 66.2 49% 90 30.02 0.0
16 10:15 SW 12 0.00 Fair CLR 86 66.2 52% 88 30.02 0.0
16 09:55 SW 12 0.00 Fair CLR 86 66.2 52% 88 30.02 0.0
16 09:35 S 10 0.00 Fair CLR 84.2 66.2 55% 87 30.02 0.0
16 09:15 S 10 0.00 Fair CLR 82.4 66.2 58% 85 30.02 0.0
16 08:55 S 13 G 17 0.00 Fair CLR 82.4 66.2 58% 85 30.02 0.0
16 08:35 S 10 0.00 Fair CLR 80.6 66.2 62% 83 30.02 0.0
16 08:15 S 8 0.00 Fair CLR 80.6 66.2 62% 83 30.02 0.0
16 07:55 S 8 0.00 Fair CLR 78.8 66.2 65% 81 30.01 0.0
16 07:35 S 7 0.00 Fair CLR 77 64.4 65% 79 30.01 0.0
16 07:15 S 6 0.00 Fair CLR 75.2 64.4 69% 77 30 0.0
Date Time (cdt) Wind (mph) Vis. (mi.) Weather Sky Cond. Air Dwpt Max. Min. Relative Humidity Wind Chill (°F) Heat Index (°F) altimeter (in) sea level (mb) 1 hr 3 hr 6 hr
6 hour
Temperature (ºF) Pressure Precipitation (in)